• MPC Preparation (Info)

  • MPEC 2008-G78 : 2008 FN = 1995 JG1

    The following Minor Planet Electronic Circular may be linked-to from your own Web pages, but must not otherwise be redistributed electronically.

    A form allowing access to any MPEC is at the bottom of this page.


    Read MPEC 2008-G77 Read MPEC 2008-G79


    M.P.E.C. 2008-G78                                Issued 2008 Apr. 14, 14:42 UT
    
         The Minor Planet Electronic Circulars contain information on unusual
             minor planets and routine data on comets.  They are published
       on behalf of Commission 20 of the International Astronomical Union by the
              Minor Planet Center, Smithsonian Astrophysical Observatory,
                              Cambridge, MA 02138, U.S.A.
    
                 Prepared using the Tamkin Foundation Computer Network
    
                                  MPC@CFA.HARVARD.EDU
              URL http://www.cfa.harvard.edu/iau/mpc.html  ISSN 1523-6714
    
                                  2008 FN = 1995 JG1
    
                               Revision to MPEC 2008-F46
    
    Additional Observations:
         K08F00N  C2008 04 14.23133 16 27 26.58 +16 28 01.8          19.2 R EG078649
         K08F00N  C2008 04 14.23310 16 27 26.15 +16 27 58.0          18.8 R EG078649
         K08F00N  C2008 04 14.23488 16 27 25.67 +16 27 54.8          19.2 R EG078649
         K08F00N  C2008 04 14.23666 16 27 25.21 +16 27 51.5          19.2 R EG078649
    
    Observer details:
    649 Powell Observatory, Louisburg.  Observer R. Fredrick.  0.75-m Newtonian
        reflector + CCD.
    
    Orbital elements:
    2008 FN = 1995 JG1                                       Earth MOID = 0.0715 AU
    Epoch 2008 May 14.0 TT = JDT 2454600.5                  MPC
    M  46.20730              (2000.0)            P               Q
    n   0.37811607     Peri.   54.93193     -0.08595397     -0.83452624
    a   1.8940261      Node    50.68007     +0.51695576     -0.50431394
    e   0.5962234      Incl.   44.70647     +0.85168577     +0.22188600
    P   2.61           H   18.5           G   0.15           U   3
    Residuals in seconds of arc
    950503 691 (3.3+  0.3+)   080331 291  0.0   0.0     080405 147  0.3+  0.1+
    950503 691 (3.6+  0.1+)   080331 291  0.1-  0.0     080405 176  0.1-  0.5-
    950503 691  1.2+  0.3+    080401 118  0.5+  0.2-    080405 176  0.0   0.7-
    950504 691  0.4-  0.3-    080401 118  0.4+  0.1-    080405 176  0.2-  0.7-
    950504 691  0.2-  0.1+    080401 118  0.0   0.2-    080405 176  0.4-  0.7-
    950504 691  0.6-  0.2-    080401 291  0.5-  0.1-    080405 176  0.5-  0.7-
    080327 G96  0.0   0.2-    080401 291  0.1-  0.0     080405 176  0.1+  0.5-
    080327 G96  0.3+  0.1-    080401 291  0.1-  0.0     080405 106  1.6+  1.1+
    080327 G96  0.2+  0.1+    080401 G96  0.2+  0.4-    080405 106  1.8+  0.9+
    080327 G96  0.2-  0.1-    080401 G96  0.0   0.2-    080405 106  1.9+  1.2+
    080327 G96  0.2+  0.1+    080401 G96  0.0   0.3-    080405 106  1.6+  0.2-
    080327 G96  0.3+  0.3+    080401 G96  0.0   0.3-    080405 711  0.5-  0.1-
    080327 G96  0.0   0.3+    080402 H55  0.2+  0.1+    080405 711  0.2-  0.6+
    080327 G96  0.1+  0.1+    080402 H55  0.2+  0.3+    080405 711  0.1-  0.2+
    080328 701  0.5-  0.6+    080402 H55  0.2+  0.1+    080407 291  0.1-  0.1+
    080328 701  0.4+  0.7+    080402 H55  0.3+  0.1+    080407 291  0.2-  0.1-
    080328 291  0.1+  0.3+    080402 291  0.3+  0.2+    080407 291  0.1-  0.0
    080328 291  0.3-  0.3-    080402 291  0.0   0.2-    080407 711  0.3+  0.2+
    080328 291  0.2+  0.0     080402 291  0.7-  0.0     080407 711  1.5+  0.2+
    080328 G96  0.1+  0.1-    080403 291  0.2-  0.2-    080407 711  1.4+  0.2-
    080328 G96  0.4+  0.4-    080403 291  0.4-  0.5-    080408 291  0.3-  0.1+
    080328 G96  0.4+  0.0     080403 291  0.3+  0.8+    080408 291  0.2-  0.1+
    080328 701  1.1+  0.2+    080404 291  0.4-  0.3+    080408 291  0.0   0.1+
    080329 J95  0.7+  0.3-    080404 291  0.3-  0.9+    080413 448  0.3+  0.4-
    080329 J95  0.5+  0.6+    080404 291  0.1-  0.1-    080413 448  0.3+  0.3-
    080330 291  1.0-  0.9-    080404 711  0.6+  0.1-    080413 448  0.2+  0.3-
    080330 291  0.2-  0.2-    080404 711  0.0   0.7-    080413 448  0.2+  0.4-
    080330 291  0.5-  0.4-    080404 711  0.4-  0.3+
    080331 291  0.1-  0.1+    080405 147  0.4+  0.3-
    
    Ephemeris:
    2008 FN                  a,e,i = 1.89, 0.60, 45                  q = 0.7648
    Date    TT    R. A. (2000) Decl.     Delta      r     Elong.  Phase     V
    2008 04 14    16 28.47   +16 35.4    0.577    1.436   128.8    33.0    19.5
    2008 04 24    15 42.58   +10 44.0    0.581    1.525   146.6    21.3    19.3
    2008 05 04    14 59.06   +04 14.5    0.628    1.611   159.5    12.7    19.3
    2008 05 14    14 23.99   -01 44.9    0.716    1.695   157.6    13.2    19.7
    2008 05 24    13 59.29   -06 39.1    0.840    1.775   146.6    18.3    20.3
    2008 06 03    13 43.80   -10 30.4    0.990    1.853   135.2    22.7    20.9
    2008 06 13    13 35.55   -13 34.7    1.158    1.927   124.8    25.6    21.4
    2008 06 23    13 32.69   -16 07.3    1.339    1.999   115.4    27.3    21.9
    
    Gareth V. Williams           (C) Copyright 2008 MPC           M.P.E.C. 2008-G78
    

    Read MPEC 2008-G77 Read MPEC 2008-G79


    MPEC number:

    Enter an MPEC number in one of the following forms:

    • 1997-B01 (the full form)
    • J97B01 (the packed version of the full form)
    • B01 (the abbreviated form)